2020-11-24 00:07:52 r, 18.11m,0000000005Hz,0000095534c,0000000.207s, 010.6C,00002191
2020-11-24 00:17:54 r, 18.14m,0000000005Hz,0000097939c,0000000.213s, 010.9C,00002191
2020-11-24 00:27:52 r, 18.17m,0000000004Hz,0000100855c,0000000.219s, 010.9C,00002191
2020-11-24 00:37:52 r, 18.17m,0000000004Hz,0000101208c,0000000.220s, 010.9C,00002191
2020-11-24 00:47:52 r, 18.15m,0000000004Hz,0000098561c,0000000.214s, 010.9C,00002191
2020-11-24 00:57:53 r, 18.13m,0000000005Hz,0000097869c,0000000.212s, 011.2C,00002191
2020-11-24 01:07:52 r, 18.06m,0000000005Hz,0000092113c,0000000.200s, 011.2C,00002191
2020-11-24 01:17:53 r, 18.08m,0000000005Hz,0000094167c,0000000.204s, 011.2C,00002191
2020-11-24 01:27:52 r, 18.06m,0000000005Hz,0000091457c,0000000.198s, 010.9C,00002191
2020-11-24 01:37:52 r, 18.03m,0000000006Hz,0000088271c,0000000.192s, 010.9C,00002191
2020-11-24 01:47:52 r, 18.02m,0000000005Hz,0000088005c,0000000.191s, 010.9C,00002191
2020-11-24 01:57:54 r, 18.09m,0000000005Hz,0000094014c,0000000.204s, 010.6C,00002191
2020-11-24 02:07:52 r, 18.07m,0000000005Hz,0000091956c,0000000.200s, 010.6C,00002191
2020-11-24 02:17:54 r, 18.13m,0000000005Hz,0000097514c,0000000.212s, 010.6C,00002191
2020-11-24 02:27:52 r, 18.18m,0000000005Hz,0000102370c,0000000.222s, 010.6C,00002191
2020-11-24 02:37:52 r, 18.20m,0000000004Hz,0000103583c,0000000.225s, 010.6C,00002191
2020-11-24 02:47:54 r, 18.23m,0000000005Hz,0000106447c,0000000.231s, 010.6C,00002191
2020-11-24 02:57:52 r, 18.30m,0000000004Hz,0000113359c,0000000.246s, 010.6C,00002191
2020-11-24 03:07:52 r, 18.36m,0000000004Hz,0000119976c,0000000.260s, 010.6C,00002191
2020-11-24 03:17:52 r, 18.32m,0000000004Hz,0000115397c,0000000.250s, 010.6C,00002191
2020-11-24 03:27:53 r, 18.32m,0000000004Hz,0000115305c,0000000.250s, 010.9C,00002191
2020-11-24 03:37:52 r, 18.33m,0000000003Hz,0000117103c,0000000.254s, 010.9C,00002191
2020-11-24 03:47:53 r, 18.32m,0000000004Hz,0000115235c,0000000.250s, 010.9C,00002191
2020-11-24 03:57:52 r, 18.38m,0000000004Hz,0000122714c,0000000.266s, 011.2C,00002191
2020-11-24 04:07:52 r, 18.42m,0000000003Hz,0000126807c,0000000.275s, 011.2C,00002191
2020-11-24 04:17:52 r, 18.43m,0000000003Hz,0000128235c,0000000.278s, 011.6C,00002191
2020-11-24 04:27:54 r, 18.46m,0000000003Hz,0000131279c,0000000.285s, 011.6C,00002191
2020-11-24 04:37:52 r, 18.46m,0000000004Hz,0000131804c,0000000.286s, 011.9C,00002191
2020-11-24 04:47:54 r, 18.58m,0000000004Hz,0000147554c,0000000.320s, 011.9C,00002191
2020-11-24 04:57:52 r, 18.56m,0000000003Hz,0000145297c,0000000.315s, 012.2C,00002191
2020-11-24 05:07:52 r, 18.51m,0000000003Hz,0000138448c,0000000.300s, 012.2C,00002191
2020-11-24 05:17:52 r, 18.47m,0000000003Hz,0000134260c,0000000.291s, 012.2C,00002191
2020-11-24 05:27:53 r, 18.45m,0000000004Hz,0000131682c,0000000.286s, 012.2C,00002191
2020-11-24 05:37:52 r, 18.47m,0000000004Hz,0000134296c,0000000.291s, 012.2C,00002191
2020-11-24 05:47:53 r, 18.41m,0000000004Hz,0000127429c,0000000.277s, 012.5C,00002191
2020-11-24 05:57:52 r, 18.40m,0000000004Hz,0000125846c,0000000.273s, 012.5C,00002191
2020-11-24 06:07:52 r, 18.35m,0000000004Hz,0000119399c,0000000.259s, 012.5C,00002191
2020-11-24 06:17:52 r, 18.37m,0000000004Hz,0000121973c,0000000.265s, 012.5C,00002191
2020-11-24 06:27:54 r, 18.34m,0000000004Hz,0000118874c,0000000.258s, 012.5C,00002191
2020-11-24 06:37:52 r, 18.23m,0000000004Hz,0000107825c,0000000.234s, 012.8C,00002191
2020-11-24 06:47:54 r, 18.19m,0000000004Hz,0000103910c,0000000.225s, 012.8C,00002191
2020-11-24 06:57:52 r, 17.84m,0000000006Hz,0000075499c,0000000.164s, 012.8C,00002191
2020-11-24 07:07:52 r, 16.72m,0000000017Hz,0000026625c,0000000.058s, 012.8C,00002191
2020-11-24 07:17:54 r, 15.11m,0000000075Hz,0000006052c,0000000.013s, 012.8C,00002191
2020-11-24 07:27:52 r, 13.32m,0000000396Hz,0000000000c,0000000.000s, 012.8C,00002191
2020-11-24 07:37:52 r, 11.30m,0000002545Hz,0000000000c,0000000.000s, 012.8C,00002191
2020-11-24 07:47:52 r, 09.91m,0000009190Hz,0000000000c,0000000.000s, 013.2C,00002191
2020-11-24 07:57:53 r, 08.94m,0000022472Hz,0000000000c,0000000.000s, 013.2C,00002191
2020-11-24 08:07:52 r, 08.04m,0000051236Hz,0000000000c,0000000.000s, 013.2C,00002191
2020-11-24 08:17:53 r, 07.45m,0000088213Hz,0000000000c,0000000.000s, 013.2C,00002191
2020-11-24 08:27:52 r, 06.81m,0000159710Hz,0000000000c,0000000.000s, 013.5C,00002191
2020-11-24 08:37:52 r, 06.29m,0000258156Hz,0000000000c,0000000.000s, 013.2C,00002191
2020-11-24 08:47:52 r, 06.09m,0000310824Hz,0000000000c,0000000.000s, 013.5C,00002191
2020-11-24 08:57:54 r, 00.00m,0000602179Hz,0000000000c,0000000.000s, 013.5C,00002191
2020-11-24 09:07:52 r, 00.00m,0000502300Hz,0000000000c,0000000.000s, 013.8C,00002191
2020-11-24 09:17:54 r, 00.00m,0000445926Hz,0000000000c,0000000.000s, 013.8C,00002191
2020-11-24 09:27:52 r, 00.00m,0000472106Hz,0000000000c,0000000.000s, 013.8C,00002191
2020-11-24 09:37:52 r, 00.00m,0000515123Hz,0000000000c,0000000.000s, 013.8C,00002191
2020-11-24 09:47:54 r, 00.00m,0000598141Hz,0000000000c,0000000.000s, 013.8C,00002191
2020-11-24 09:57:52 r, 00.00m,0000598005Hz,0000000000c,0000000.000s, 014.1C,00002191
2020-11-24 10:07:52 r, 00.00m,0000597999Hz,0000000000c,0000000.000s, 014.5C,00002191
2020-11-24 10:17:52 r, 00.00m,0000598042Hz,0000000000c,0000000.000s, 014.5C,00002191
2020-11-24 10:27:53 r, 00.00m,0000598011Hz,0000000000c,0000000.000s, 014.5C,00002191
2020-11-24 10:37:52 r, 00.00m,0000598076Hz,0000000000c,0000000.000s, 014.5C,00002191
2020-11-24 10:47:53 r, 00.00m,0000598014Hz,0000000000c,0000000.000s, 014.5C,00002191
2020-11-24 10:57:52 r, 00.00m,0000597943Hz,0000000000c,0000000.000s, 014.5C,00002191
2020-11-24 11:07:52 r, 00.00m,0000597945Hz,0000000000c,0000000.000s, 014.5C,00002191
2020-11-24 11:17:52 r, 00.00m,0000597954Hz,0000000000c,0000000.000s, 014.8C,00002191
2020-11-24 11:27:54 r, 00.00m,0000597917Hz,0000000000c,0000000.000s, 014.5C,00002191
2020-11-24 11:37:52 r, 00.00m,0000597997Hz,0000000000c,0000000.000s, 014.8C,00002191
2020-11-24 11:47:54 r, 00.00m,0000597827Hz,0000000000c,0000000.000s, 014.8C,00002191
2020-11-24 11:57:52 r, 00.00m,0000597805Hz,0000000000c,0000000.000s, 015.1C,00002191
2020-11-24 12:07:52 r, 00.00m,0000597810Hz,0000000000c,0000000.000s, 015.4C,00002191
2020-11-24 12:17:52 r, 00.00m,0000597831Hz,0000000000c,0000000.000s, 015.7C,00002191
2020-11-24 12:27:53 r, 00.00m,0000597796Hz,0000000000c,0000000.000s, 016.1C,00002191
2020-11-24 12:37:52 r, 00.00m,0000597736Hz,0000000000c,0000000.000s, 016.1C,00002191
2020-11-24 12:47:52 r, 00.00m,0000597733Hz,0000000000c,0000000.000s, 016.1C,00002191
2020-11-24 12:57:54 r, 00.00m,0000597820Hz,0000000000c,0000000.000s, 015.4C,00002191
2020-11-24 13:07:52 r, 00.00m,0000597906Hz,0000000000c,0000000.000s, 015.1C,00002191
2020-11-24 13:17:52 r, 00.00m,0000597973Hz,0000000000c,0000000.000s, 014.8C,00002191
2020-11-24 13:27:54 r, 00.00m,0000597959Hz,0000000000c,0000000.000s, 014.8C,00002191
2020-11-24 13:37:52 r, 00.00m,0000597952Hz,0000000000c,0000000.000s, 014.8C,00002191
2020-11-24 13:47:52 r, 00.00m,0000597895Hz,0000000000c,0000000.000s, 014.5C,00002191
2020-11-24 13:57:52 r, 00.00m,0000597979Hz,0000000000c,0000000.000s, 014.5C,00002191
2020-11-24 14:07:52 r, 00.00m,0000597972Hz,0000000000c,0000000.000s, 014.5C,00002191
2020-11-24 14:17:52 r, 00.00m,0000597992Hz,0000000000c,0000000.000s, 014.5C,00002191
2020-11-24 14:27:52 r, 00.00m,0000597962Hz,0000000000c,0000000.000s, 014.1C,00002191
2020-11-24 14:37:52 r, 00.00m,0000597945Hz,0000000000c,0000000.000s, 014.1C,00002191
2020-11-24 14:47:52 r, 00.00m,0000598012Hz,0000000000c,0000000.000s, 014.1C,00002191
2020-11-24 14:57:53 r, 00.00m,0000598044Hz,0000000000c,0000000.000s, 013.8C,00002191
2020-11-24 15:07:52 r, 00.00m,0000598047Hz,0000000000c,0000000.000s, 013.5C,00002191
2020-11-24 15:17:52 r, 00.00m,0000598134Hz,0000000000c,0000000.000s, 013.2C,00002191
2020-11-24 15:27:54 r, 00.00m,0000598206Hz,0000000000c,0000000.000s, 012.8C,00002191
2020-11-24 15:37:52 r, 00.00m,0000515587Hz,0000000000c,0000000.000s, 012.5C,00002191
2020-11-24 15:47:52 r, 05.84m,0000388752Hz,0000000000c,0000000.000s, 012.2C,00002191
2020-11-24 15:57:54 r, 06.14m,0000298392Hz,0000000000c,0000000.000s, 011.9C,00002191
2020-11-24 16:07:52 r, 06.35m,0000243764Hz,0000000000c,0000000.000s, 011.9C,00002191
2020-11-24 16:17:52 r, 06.86m,0000152816Hz,0000000000c,0000000.000s, 011.6C,00002191
2020-11-24 16:27:52 r, 07.63m,0000075548Hz,0000000000c,0000000.000s, 011.6C,00002191
2020-11-24 16:37:53 r, 08.52m,0000033049Hz,0000000000c,0000000.000s, 011.2C,00002191
2020-11-24 16:47:52 r, 09.55m,0000012802Hz,0000000000c,0000000.000s, 011.2C,00002191
2020-11-24 16:57:53 r, 11.05m,0000003200Hz,0000000000c,0000000.000s, 011.2C,00002191
2020-11-24 17:07:52 r, 13.06m,0000000504Hz,0000000000c,0000000.000s, 010.9C,00002191
2020-11-24 17:17:52 r, 14.94m,0000000089Hz,0000005189c,0000000.011s, 010.9C,00002191
2020-11-24 17:27:52 r, 16.54m,0000000020Hz,0000022736c,0000000.049s, 010.9C,00002191
2020-11-24 17:37:54 r, 17.61m,0000000008Hz,0000060576c,0000000.131s, 010.6C,00002191
2020-11-24 17:47:52 r, 18.00m,0000000005Hz,0000086044c,0000000.187s, 010.6C,00002191
2020-11-24 17:57:54 r, 18.11m,0000000005Hz,0000095581c,0000000.207s, 010.6C,00002191
2020-11-24 18:07:52 r, 18.11m,0000000005Hz,0000094814c,0000000.206s, 010.6C,00002191
2020-11-24 18:17:52 r, 18.10m,0000000005Hz,0000094656c,0000000.205s, 010.6C,00002191
2020-11-24 18:27:52 r, 18.08m,0000000005Hz,0000092312c,0000000.200s, 010.6C,00002191
2020-11-24 18:37:53 r, 18.04m,0000000005Hz,0000089168c,0000000.194s, 010.6C,00002191
2020-11-24 18:47:52 r, 18.06m,0000000005Hz,0000091563c,0000000.199s, 010.6C,00002191
2020-11-24 18:57:53 r, 18.04m,0000000005Hz,0000089297c,0000000.194s, 010.6C,00002191
2020-11-24 19:07:52 r, 18.03m,0000000006Hz,0000088358c,0000000.192s, 010.6C,00002191
2020-11-24 19:17:52 r, 18.09m,0000000005Hz,0000093544c,0000000.203s, 010.6C,00002191
2020-11-24 19:27:52 r, 18.03m,0000000006Hz,0000088109c,0000000.191s, 010.6C,00002191
2020-11-24 19:37:54 r, 18.01m,0000000006Hz,0000086946c,0000000.189s, 010.6C,00002191
2020-11-24 19:47:52 r, 17.99m,0000000005Hz,0000085675c,0000000.186s, 010.6C,00002191
2020-11-24 19:57:54 r, 18.03m,0000000005Hz,0000088318c,0000000.192s, 010.6C,00002191
2020-11-24 20:07:52 r, 18.02m,0000000005Hz,0000087884c,0000000.191s, 010.3C,00002191
2020-11-24 20:17:52 r, 18.01m,0000000005Hz,0000087233c,0000000.189s, 010.6C,00002191
2020-11-24 20:27:54 r, 18.01m,0000000005Hz,0000086807c,0000000.188s, 010.6C,00002191
2020-11-24 20:37:52 r, 17.98m,0000000006Hz,0000084808c,0000000.184s, 010.6C,00002191
2020-11-24 20:47:52 r, 18.01m,0000000005Hz,0000087390c,0000000.190s, 010.6C,00002191
2020-11-24 20:57:52 r, 18.03m,0000000006Hz,0000088683c,0000000.192s, 010.6C,00002191
2020-11-24 21:07:53 r, 18.04m,0000000005Hz,0000089402c,0000000.194s, 010.6C,00002191
2020-11-24 21:17:52 r, 18.09m,0000000005Hz,0000093855c,0000000.204s, 010.6C,00002191
2020-11-24 21:27:53 r, 18.08m,0000000005Hz,0000092766c,0000000.201s, 010.6C,00002191
2020-11-24 21:37:52 r, 18.08m,0000000005Hz,0000093170c,0000000.202s, 010.3C,00002191
2020-11-24 21:47:52 r, 18.09m,0000000005Hz,0000093205c,0000000.202s, 009.9C,00002191
2020-11-24 21:57:52 r, 18.15m,0000000005Hz,0000098683c,0000000.214s, 009.6C,00002191
2020-11-24 22:07:54 r, 18.06m,0000000005Hz,0000091246c,0000000.198s, 009.3C,00002191
2020-11-24 22:17:51 r, 18.08m,0000000005Hz,0000092383c,0000000.200s, 009.0C,00002191
2020-11-24 22:27:54 r, 18.12m,0000000005Hz,0000096554c,0000000.210s, 009.0C,00002191
2020-11-24 22:37:52 r, 18.12m,0000000005Hz,0000096122c,0000000.209s, 009.0C,00002191
2020-11-24 22:47:52 r, 18.12m,0000000005Hz,0000096229c,0000000.209s, 009.0C,00002191
2020-11-24 22:57:54 r, 18.10m,0000000005Hz,0000095021c,0000000.206s, 008.7C,00002191
2020-11-24 23:07:52 r, 18.12m,0000000005Hz,0000097109c,0000000.211s, 008.7C,00002191
2020-11-24 23:17:52 r, 18.10m,0000000005Hz,0000095041c,0000000.206s, 008.7C,00002191
2020-11-24 23:27:52 r, 18.14m,0000000005Hz,0000098497c,0000000.214s, 008.7C,00002191
2020-11-24 23:37:53 r, 18.31m,0000000004Hz,0000116035c,0000000.252s, 008.3C,00002191
2020-11-24 23:47:51 r, 18.29m,0000000004Hz,0000113807c,0000000.247s, 008.3C,00002191
2020-11-24 23:57:53 r, 18.32m,0000000004Hz,0000116524c,0000000.253s, 008.3C,00002191
